[ hide orbit diagram ]
For accurate long-term ephemerides, please instead use our Horizons system.This orbit viewer was implemented using two-body methods, and hence should not be used for determining accurate long-term trajectories (over several years or decades) or planetary encounter circumstances.
Orbital Elements at Epoch 2459000.5 (2020-May-31.0) TDB
Reference: JPL 15 (heliocentric ecliptic J2000)
Element | Value | Uncertainty (1-sigma) | Units |
e | .2058656474076979 | 6.1448e-08 | |
a | 2.396094878343068 | 2.3326e-08 | au |
q | 1.902821254962703 | 1.5217e-07 | au |
i | 4.938262275955045 | 7.3012e-06 | deg |
node | 30.04611282005338 | 6.6307e-05 | deg |
peri | 60.08956592032219 | 6.8447e-05 | deg |
M | 224.5667940435373 | 1.8161e-05 | deg |
tp | 2459510.155953232237 (2021-Oct-22.65595323) | 7.2267e-05 | TDB |
period | 1354.735287168694 3.71 | 1.9782e-05 5.416e-08 | d yr |
n | .2657345707384473 | 3.8804e-09 | deg/d |
Q | 2.889368501723433 | 2.8128e-08 | au |
|
| | Orbit Determination Parameters
Additional Information
|
[ show covariance matrix ]
Physical Parameter Table
Parameter |
Symbol |
Value |
Units |
Sigma |
Reference |
Notes |
absolute magnitude |
H |
17.7 |
|
n/a |
MPO434609 |
|
|
437340 (2013 SM78) Discovered 2006-Nov-19 by Spacewatch at Kitt Peak |
Reference: | Last Updated: 2015-06-04 |
|
Alternate Designations
2013 SM78 = 2006 WN112 = 2011 EL75 |
|
|